Hourly Data Report for May 11, 2012

All times are specified in Local Standard Time (LST). Add 1 hour to adjust for Daylight Saving Time where and when it is observed.

SAULT STE MARIE A
ONTARIO

46°29'06.000" N
84°30'35.000" W
192.00 m
6057591
71260
YAM

Related Data

No related data is available for this station

Download Data

Hourly Data (May 2012)
Hourly Data Report for May 11, 2012
Temp Definition
°C
Dew Point Temp Definition
°C
Rel Hum Definition
%
Wind Dir Definition
10's deg

Wind Spd Definition
km/h
Visibility Definition
km
Stn Press Definition
kPa
Hmdx Definition


Wind Chill Definition


Weather Definition


TIME
00:00 2.0 0.1 87 4 5 10.0 99.20     LegendNANA
01:00 1.0 0.1 94   0 10.0 99.22     Clear
02:00 -0.1 -0.7 96   0 10.0 99.21     LegendNANA
03:00 -1.0 -1.3 98 11 5 10.0 99.26   -3 LegendNANA
04:00 -1.5 -1.5 100   0 10.0 99.29     Clear
05:00 -2.1 -2.1 100   0 10.0 99.36     LegendNANA
06:00 0.3 0.3 100   0 10.0 99.40     LegendNANA
07:00 6.4 2.9 78 9 6 10.0 99.45     Mainly Clear
08:00 10.3 4.5 67 14 5 10.0 99.46     LegendNANA
09:00 13.3 5.5 59 16 5 10.0 99.44     LegendNANA
10:00 17.0 6.6 50 6 11 10.0 99.42     Mainly Clear
11:00 20.2 6.0 39 13 11 10.0 99.38     LegendNANA
12:00 22.2 5.4 33 18 11 10.0 99.32     LegendNANA
13:00 23.3 6.8 34 20 17 10.0 99.28     Mainly Clear
14:00 23.5 5.1 30 21 18 10.0 99.26     LegendNANA
15:00 22.7 4.9 31 20 19 10.0 99.27     LegendNANA
16:00 21.3 4.6 33 22 23 10.0 99.32     Mainly Clear
17:00 19.7 3.6 34 22 22 10.0 99.34     LegendNANA
18:00 19.6 4.3 36 23 21 10.0 99.32     LegendNANA
19:00 18.2 4.9 41 22 15 10.0 99.35     Mostly Cloudy
20:00 17.3 5.4 45 22 14 10.0 99.33     LegendNANA
21:00 17.3 5.4 45 21 19 10.0 99.34     LegendNANA
22:00 15.8 5.8 51 14 7 10.0 99.43     Mostly Cloudy
23:00 14.7 5.8 55 19 7 10.0 99.53     LegendNANA

Notes on Data Quality.

Legend

  • E = Estimated
  • M = Missing
  • NA = Not Available
Date modified: